sat.trackr.live / text

‹ back to catalog

STARLINK-36654

NORAD 67838 · 2026-033T

PAYLOAD ACTIVE UNKNOWN

§ Identity

Operator
Country
US
Launch date
2026-02-16
Launch site
AFETR
Launch vehicle
Mass (kg)
RCS (m²)

Purposes: comms

External: N2YO · Heavens-Above · Gunter

§ Orbital elements

Epoch: 2026-09-18T23:29:58.832160Z

Period
94.27 min
Inclination
43.0026°
Eccentricity
0.0001816
Mean motion
15.27580395 rev/d
Perigee alt
481.8 km
Apogee alt
484.3 km
Semi-major
6,861.2 km
B*
3.7193e-4
RAAN
255.5901°
Arg perigee
268.1057°
Mean anomaly
91.9586°
Rev number
3,423

§ Raw data

STARLINK-366541 67838U 26033T   26261.97915315  .00009986  00000+0  37193-3 0  99902 67838  43.0026 255.5901 0001816 268.1057  91.9586 15.27580395 34236

JSON: /api/v1/satellites/67838 · /tle

For live sub-satellite position, see the globe view (requires WebGL).

§ Visibility from observer

Set your observer location to see the next 7 days of passes ≥ 10°. The values pass through the URL so the page stays shareable.

No JS? Fill the form by hand. The geolocation button needs JavaScript.